AHY8104 LTFJ-UBBB

Flight info

Callsign AHY8104
Flight time 2h 15m
Altitude 37000
Route NUGBA T315 GUMRU/N0443F370 UW702 HAKAN UT310 INB UW90 SIN UN644 ROLIN N644 LAGAS M747 SUBUT T923 ERLEV
Aircraft A319/M-SDE3FGHIRWY/LB1

Departure

Time 2025-09-10 11:04
Airport Istanbul Sabiha Gökçen International Airport (LTFJ)

Arrival

Time 2025-09-10 13:19
Airport Heydar Aliyev International Airport (UBBB)
Time Latitude Longitude Altitude Speed Heading
2025-09-10 10:29 40.90610 29.31630 298 ft 0 kts 334°
2025-09-10 10:50 40.90591 29.31642 319 ft 3 kts 334°
2025-09-10 10:50 40.90558 29.31665 319 ft 3 kts 310°
2025-09-10 10:51 40.90551 29.31712 319 ft 2 kts 247°
2025-09-10 10:51 40.90554 29.31723 320 ft 0 kts 244°
2025-09-10 10:55 40.90474 29.31508 321 ft 15 kts 243°
2025-09-10 10:55 40.90355 29.31478 321 ft 9 kts 156°
2025-09-10 10:55 40.90305 29.31497 321 ft 6 kts 180°
2025-09-10 10:56 40.90247 29.31410 321 ft 5 kts 246°
2025-09-10 10:57 40.90227 29.31358 321 ft 1 kts 243°
2025-09-10 10:57 40.90217 29.31333 320 ft 5 kts 244°
2025-09-10 10:58 40.90149 29.31148 321 ft 14 kts 244°
2025-09-10 10:58 40.90070 29.30933 321 ft 14 kts 244°
2025-09-10 10:59 40.89986 29.30704 321 ft 15 kts 244°
2025-09-10 10:59 40.89895 29.30453 320 ft 16 kts 244°
2025-09-10 10:59 40.89845 29.30316 320 ft 17 kts 244°
2025-09-10 11:00 40.89680 29.29872 321 ft 19 kts 244°
2025-09-10 11:01 40.89561 29.29551 319 ft 20 kts 244°
2025-09-10 11:01 40.89428 29.29255 321 ft 13 kts 202°
2025-09-10 11:02 40.89282 29.29351 322 ft 11 kts 103°
2025-09-10 11:02 40.89343 29.29525 322 ft 50 kts 63°
2025-09-10 11:03 40.90018 29.31382 321 ft 169 kts 65°
2025-09-10 11:03 40.90536 29.32775 904 ft 167 kts 65°
2025-09-10 11:03 40.91575 29.35539 2262 ft 180 kts 62°
2025-09-10 11:04 40.94201 29.42689 4566 ft 239 kts 64°
2025-09-10 11:05 40.94926 29.44675 5365 ft 242 kts 64°
2025-09-10 11:05 40.96849 29.48602 6704 ft 268 kts 54°
2025-09-10 11:06 40.99051 29.52688 8357 ft 277 kts 54°
2025-09-10 11:06 41.01309 29.56882 10139 ft 283 kts 53°
2025-09-10 11:07 41.03754 29.61456 10891 ft 322 kts 53°
2025-09-10 11:07 41.06385 29.66410 12282 ft 335 kts 53°
2025-09-10 11:08 41.09104 29.71539 13728 ft 345 kts 53°
2025-09-10 11:08 41.11904 29.76827 14990 ft 355 kts 53°
2025-09-10 11:09 41.14770 29.82246 16235 ft 363 kts 53°
2025-09-10 11:09 41.17683 29.87772 17451 ft 371 kts 53°
2025-09-10 11:10 41.20671 29.93448 18611 ft 379 kts 53°
2025-09-10 11:10 41.23716 29.99234 19718 ft 385 kts 53°
2025-09-10 11:11 41.26800 30.05125 20848 ft 390 kts 52°
2025-09-10 11:11 41.29918 30.11086 21940 ft 396 kts 52°
2025-09-10 11:11 41.31494 30.14100 22482 ft 399 kts 52°
2025-09-10 11:12 41.36293 30.23287 24002 ft 407 kts 52°
2025-09-10 11:13 41.39532 30.29507 24871 ft 411 kts 52°
2025-09-10 11:14 41.51119 30.51857 27687 ft 426 kts 51°
2025-09-10 11:17 41.57963 30.86352 30787 ft 468 kts 91°
2025-09-10 11:18 41.56062 31.16925 33063 ft 472 kts 91°
2025-09-10 11:21 41.58716 31.55221 35729 ft 462 kts 72°
2025-09-10 11:22 41.64094 31.84370 37005 ft 461 kts 72°
2025-09-10 11:25 41.70903 32.21849 37005 ft 462 kts 73°
2025-09-10 11:27 41.76628 32.55447 37008 ft 463 kts 74°
2025-09-10 11:29 41.82181 32.89173 37013 ft 464 kts 75°
2025-09-10 11:31 41.87631 33.22979 36945 ft 465 kts 72°
2025-09-10 11:33 41.93749 33.61635 37009 ft 471 kts 73°
2025-09-10 11:35 41.96396 33.92346 36991 ft 475 kts 82°
2025-09-10 11:37 41.98566 34.32092 36995 ft 475 kts 83°
2025-09-10 11:39 42.00162 34.63069 37006 ft 475 kts 83°
2025-09-10 11:41 42.02097 35.02942 37008 ft 475 kts 84°
2025-09-10 11:43 42.00914 35.33975 36992 ft 477 kts 93°
2025-09-10 11:45 41.98928 35.69543 36981 ft 477 kts 94°
2025-09-10 11:47 41.96837 36.05049 36974 ft 476 kts 94°
2025-09-10 11:49 41.94646 36.40434 36968 ft 476 kts 95°
2025-09-10 11:51 41.92443 36.74375 36969 ft 475 kts 95°
2025-09-10 11:53 41.90148 37.09656 36965 ft 475 kts 92°
2025-09-10 11:54 41.89892 37.40645 36961 ft 474 kts 92°
2025-09-10 11:57 41.89129 37.80427 36958 ft 473 kts 92°
2025-09-10 11:58 41.88482 38.11281 36959 ft 473 kts 93°
2025-09-10 12:01 41.87511 38.51032 36955 ft 474 kts 93°
2025-09-10 12:02 41.86661 38.81967 36956 ft 474 kts 94°
2025-09-10 12:05 41.85453 39.21690 36964 ft 473 kts 94°
2025-09-10 12:07 41.84265 39.56864 36962 ft 472 kts 95°
2025-09-10 12:09 41.82811 39.96437 36955 ft 472 kts 95°
2025-09-10 12:10 41.81748 40.22930 37073 ft 474 kts 96°
2025-09-10 12:13 41.80048 40.62586 37062 ft 473 kts 96°
2025-09-10 12:15 41.78344 40.97790 37057 ft 475 kts 97°
2025-09-10 12:17 41.76258 41.37537 37071 ft 476 kts 97°
2025-09-10 12:19 41.74542 41.68479 37077 ft 477 kts 98°
2025-09-10 12:21 41.72209 42.08369 37105 ft 478 kts 98°
2025-09-10 12:23 41.70290 42.39414 37122 ft 479 kts 98°
2025-09-10 12:25 41.67693 42.79443 37145 ft 481 kts 99°
2025-09-10 12:27 41.65557 43.10628 37171 ft 483 kts 99°
2025-09-10 12:29 41.62690 43.50894 37162 ft 484 kts 99°
2025-09-10 12:31 41.60361 43.82280 37152 ft 486 kts 100°
2025-09-10 12:33 41.57140 44.22665 37120 ft 484 kts 107°
2025-09-10 12:35 41.50065 44.51959 37084 ft 478 kts 114°
2025-09-10 12:37 41.40552 44.89822 37041 ft 479 kts 115°
2025-09-10 12:39 41.33069 45.19267 37009 ft 481 kts 115°
2025-09-10 12:41 41.24394 45.52891 36992 ft 482 kts 116°
2025-09-10 12:43 41.15957 45.85055 36960 ft 483 kts 117°
2025-09-10 12:45 41.06998 46.18720 36949 ft 485 kts 117°
2025-09-10 12:47 40.98017 46.52229 36926 ft 487 kts 118°
2025-09-10 12:49 40.89603 46.86436 36901 ft 506 kts 102°
2025-09-10 12:51 40.86871 47.23687 36541 ft 520 kts 102°
2025-09-10 12:53 40.84128 47.60802 33440 ft 493 kts 100°
2025-09-10 12:55 40.82006 47.95883 30293 ft 468 kts 99°
2025-09-10 12:57 40.79845 48.28658 26861 ft 442 kts 100°
2025-09-10 12:58 40.78255 48.52188 24455 ft 425 kts 100°
2025-09-10 12:59 40.77725 48.59827 23686 ft 416 kts 100°
2025-09-10 12:59 40.77456 48.63607 23254 ft 412 kts 100°
2025-09-10 12:59 40.76925 48.71064 22361 ft 406 kts 100°
2025-09-10 13:00 40.76136 48.82062 21073 ft 397 kts 100°
2025-09-10 13:01 40.75614 48.89266 20238 ft 392 kts 100°
2025-09-10 13:01 40.75101 48.96342 19434 ft 385 kts 99°
2025-09-10 13:02 40.74591 49.03327 18643 ft 380 kts 99°
2025-09-10 13:02 40.74090 49.10210 17800 ft 367 kts 99°
2025-09-10 13:03 40.73609 49.16748 16790 ft 352 kts 99°
2025-09-10 13:03 40.73118 49.23130 15315 ft 354 kts 99°
2025-09-10 13:03 40.72906 49.26387 14538 ft 358 kts 97°
2025-09-10 13:04 40.69649 49.34462 12737 ft 327 kts 138°
2025-09-10 13:05 40.66665 49.38501 12315 ft 295 kts 138°
2025-09-10 13:05 40.63768 49.42413 11490 ft 303 kts 138°
2025-09-10 13:06 40.60814 49.46400 10811 ft 301 kts 137°
2025-09-10 13:06 40.57932 49.50300 10160 ft 297 kts 136°
2025-09-10 13:07 40.55071 49.54152 9470 ft 292 kts 136°
2025-09-10 13:07 40.53660 49.56051 9113 ft 289 kts 136°
2025-09-10 13:07 40.50994 49.59643 8443 ft 285 kts 135°
2025-09-10 13:08 40.46886 49.65159 7487 ft 278 kts 135°
2025-09-10 13:09 40.44194 49.68767 6953 ft 275 kts 134°
2025-09-10 13:09 40.41538 49.72324 6431 ft 271 kts 134°
2025-09-10 13:10 40.38912 49.75832 5897 ft 268 kts 134°
2025-09-10 13:10 40.36297 49.79318 5356 ft 268 kts 134°
2025-09-10 13:11 40.33691 49.82797 4827 ft 267 kts 134°
2025-09-10 13:11 40.32388 49.84533 4543 ft 266 kts 134°
2025-09-10 13:11 40.29854 49.87907 4053 ft 254 kts 133°
2025-09-10 13:12 40.26348 49.92581 3472 ft 231 kts 131°
2025-09-10 13:13 40.25164 49.96256 3096 ft 220 kts 85°
2025-09-10 13:13 40.26426 50.01928 2500 ft 215 kts 66°
2025-09-10 13:14 40.26987 50.03730 2308 ft 211 kts 56°
2025-09-10 13:14 40.28992 50.06354 2025 ft 204 kts 29°
2025-09-10 13:15 40.31717 50.08033 2000 ft 208 kts
2025-09-10 13:15 40.33109 50.08040 2003 ft 193 kts 351°
2025-09-10 13:15 40.35585 50.07276 1910 ft 179 kts 348°
2025-09-10 13:16 40.39055 50.06191 1284 ft 154 kts 347°
2025-09-10 13:17 40.40928 50.05605 920 ft 132 kts 348°
2025-09-10 13:17 40.42654 50.05069 643 ft 126 kts 346°
2025-09-10 13:18 40.44355 50.04538 316 ft 126 kts 345°
2025-09-10 13:18 40.46067 50.03991 15 ft 120 kts 345°
2025-09-10 13:19 40.47103 50.03669 13 ft 34 kts 347°
2025-09-10 13:19 40.47323 50.03599 14 ft 32 kts 347°
2025-09-10 13:19 40.47678 50.03561 13 ft 20 kts 71°
2025-09-10 13:20 40.47361 50.03756 15 ft 18 kts 160°
2025-09-10 13:21 40.47120 50.03874 14 ft 19 kts 159°
2025-09-10 13:21 40.46887 50.03989 14 ft 15 kts 161°
2025-09-10 13:22 40.46873 50.04228 14 ft 15 kts 76°
2025-09-10 13:22 40.46906 50.04502 15 ft 16 kts 89°
2025-09-10 13:23 40.46916 50.04803 15 ft 17 kts 87°
2025-09-10 13:23 40.46890 50.04904 15 ft 11 kts 152°
2025-09-10 13:24 40.46663 50.04852 16 ft 8 kts 161°